Time,TemperatureF,DewpointF,PressureIn,WindDirection,WindDirectionDegrees,WindSpeedMPH,WindSpeedGustMPH,Humidity,HourlyPrecipIn,Conditions,Clouds,dailyrainin,SolarRadiationWatts/m^2,SoftwareType,DateUTC
2013-04-28 00:21:00,53.0,14.0,-100.00,WNW,291,3.0,6.0,21,0.00,,,0.00,0.000000,,2013-04-28 06:21:00,
2013-04-28 00:32:00,53.0,14.0,-100.00,WNW,291,3.0,6.0,21,0.00,,,0.00,0.000000,,2013-04-28 06:32:00,
2013-04-28 00:51:00,50.0,17.0,-100.00,SSW,196,1.0,5.0,27,-99.99,,,0.00,0.000000,,2013-04-28 06:51:00,
2013-04-28 01:21:00,50.0,17.0,-100.00,SSW,196,1.0,5.0,27,-99.99,,,0.00,0.000000,,2013-04-28 07:21:00,
2013-04-28 01:31:00,50.0,17.0,-100.00,SSW,196,1.0,5.0,27,-99.99,,,0.00,0.000000,,2013-04-28 07:31:00,
2013-04-28 01:42:00,50.0,17.0,-100.00,SSW,196,1.0,5.0,27,-99.99,,,0.00,0.000000,,2013-04-28 07:42:00,
2013-04-28 01:51:00,45.0,21.0,-100.00,WNW,295,5.0,9.0,38,0.00,,,0.00,0.000000,,2013-04-28 07:51:00,
2013-04-28 02:21:00,45.0,21.0,-100.00,WNW,295,5.0,9.0,38,0.00,,,0.00,0.000000,,2013-04-28 08:21:00,
2013-04-28 02:32:00,45.0,21.0,-100.00,WNW,295,5.0,9.0,38,0.00,,,0.00,0.000000,,2013-04-28 08:32:00,
2013-04-28 02:42:00,45.0,21.0,-100.00,WNW,295,5.0,9.0,38,0.00,,,0.00,0.000000,,2013-04-28 08:42:00,
2013-04-28 02:51:00,44.0,19.0,-100.00,East,92,1.0,7.0,37,0.00,,,0.00,0.000000,,2013-04-28 08:51:00,
2013-04-28 03:21:00,44.0,19.0,-100.00,East,92,1.0,7.0,37,0.00,,,0.00,0.000000,,2013-04-28 09:21:00,
2013-04-28 03:33:00,44.0,19.0,-100.00,East,92,1.0,7.0,37,0.00,,,0.00,0.000000,,2013-04-28 09:33:00,
2013-04-28 03:42:00,44.0,19.0,-100.00,East,92,1.0,7.0,37,0.00,,,0.00,0.000000,,2013-04-28 09:42:00,
2013-04-28 04:12:00,46.0,19.0,-100.00,SE,135,3.0,8.0,33,0.00,,,0.00,0.000000,,2013-04-28 10:12:00,
2013-04-28 04:22:00,46.0,19.0,-100.00,SE,135,3.0,8.0,33,0.00,,,0.00,0.000000,,2013-04-28 10:22:00,
2013-04-28 04:32:00,46.0,19.0,-100.00,SE,135,3.0,8.0,33,0.00,,,0.00,0.000000,,2013-04-28 10:32:00,
2013-04-28 04:51:00,42.0,18.0,-100.00,NE,53,3.0,5.0,38,-99.99,,,0.00,0.000000,,2013-04-28 10:51:00,
2013-04-28 05:22:00,42.0,18.0,-100.00,NE,53,3.0,5.0,38,-99.99,,,0.00,0.000000,,2013-04-28 11:22:00,
2013-04-28 05:32:00,42.0,18.0,-100.00,NE,53,3.0,5.0,38,-99.99,,,0.00,0.000000,,2013-04-28 11:32:00,
2013-04-28 05:42:00,42.0,18.0,-100.00,NE,53,3.0,5.0,38,-99.99,,,0.00,0.000000,,2013-04-28 11:42:00,
2013-04-28 05:51:00,41.0,20.0,-100.00,ESE,102,4.0,9.0,42,0.00,,,-99.99,0.000000,,2013-04-28 11:51:00,
2013-04-28 06:11:00,41.0,20.0,-100.00,ESE,102,4.0,9.0,42,0.00,,,-99.99,0.000000,,2013-04-28 12:11:00,
2013-04-28 06:21:00,41.0,20.0,-100.00,ESE,102,4.0,9.0,42,0.00,,,-99.99,0.000000,,2013-04-28 12:21:00,
2013-04-28 06:32:00,41.0,20.0,-100.00,ESE,102,4.0,9.0,42,0.00,,,-99.99,0.000000,,2013-04-28 12:32:00,
2013-04-28 06:42:00,41.0,20.0,-100.00,ESE,102,4.0,9.0,42,0.00,,,-99.99,0.000000,,2013-04-28 12:42:00,
2013-04-28 06:51:00,41.0,21.0,-100.00,East,91,3.0,10.0,45,0.00,,,0.00,19.000000,,2013-04-28 12:51:00,
2013-04-28 07:11:00,41.0,21.0,-100.00,East,91,3.0,10.0,45,0.00,,,0.00,19.000000,,2013-04-28 13:11:00,
2013-04-28 07:21:00,41.0,21.0,-100.00,East,91,3.0,10.0,45,0.00,,,0.00,19.000000,,2013-04-28 13:21:00,
2013-04-28 07:31:00,41.0,21.0,-100.00,East,91,3.0,10.0,45,0.00,,,0.00,19.000000,,2013-04-28 13:31:00,
2013-04-28 07:42:00,41.0,21.0,-100.00,East,91,3.0,10.0,45,0.00,,,0.00,19.000000,,2013-04-28 13:42:00,
2013-04-28 08:21:00,47.0,21.0,-100.00,East,82,5.0,10.0,35,0.00,,,-99.99,211.000000,,2013-04-28 14:21:00,
2013-04-28 08:31:00,47.0,21.0,-100.00,East,82,5.0,10.0,35,0.00,,,-99.99,211.000000,,2013-04-28 14:31:00,
2013-04-28 08:51:00,47.0,23.0,-100.00,North,11,4.0,13.0,38,0.00,,,0.00,443.000000,,2013-04-28 14:51:00,
2013-04-28 09:21:00,47.0,23.0,-100.00,North,11,4.0,13.0,38,0.00,,,0.00,443.000000,,2013-04-28 15:21:00,
2013-04-28 09:32:00,47.0,23.0,-100.00,North,11,4.0,13.0,38,0.00,,,0.00,443.000000,,2013-04-28 15:32:00,
2013-04-28 09:42:00,47.0,23.0,-100.00,North,11,4.0,13.0,38,0.00,,,0.00,443.000000,,2013-04-28 15:42:00,
2013-04-28 09:51:00,53.0,25.0,-100.00,NNE,25,4.0,7.0,33,0.00,,,0.00,691.000000,,2013-04-28 15:51:00,
2013-04-28 10:13:00,53.0,25.0,-100.00,NNE,25,4.0,7.0,33,0.00,,,0.00,691.000000,,2013-04-28 16:13:00,
2013-04-28 10:23:00,53.0,25.0,-100.00,NNE,25,4.0,7.0,33,0.00,,,0.00,691.000000,,2013-04-28 16:23:00,
2013-04-28 10:32:00,53.0,25.0,-100.00,NNE,25,4.0,7.0,33,0.00,,,0.00,691.000000,,2013-04-28 16:32:00,
2013-04-28 10:42:00,53.0,25.0,-100.00,NNE,25,4.0,7.0,33,0.00,,,0.00,691.000000,,2013-04-28 16:42:00,
2013-04-28 10:51:00,59.0,22.0,-100.00,NE,41,4.0,7.0,24,0.00,,,0.00,848.000000,,2013-04-28 16:51:00,
2013-04-28 11:21:00,59.0,22.0,-100.00,NE,41,4.0,7.0,24,0.00,,,0.00,848.000000,,2013-04-28 17:21:00,
2013-04-28 11:32:00,59.0,22.0,-100.00,NE,41,4.0,7.0,24,0.00,,,0.00,848.000000,,2013-04-28 17:32:00,
2013-04-28 11:42:00,59.0,22.0,-100.00,NE,41,4.0,7.0,24,0.00,,,0.00,848.000000,,2013-04-28 17:42:00,
2013-04-28 11:51:00,64.0,23.0,-100.00,NNW,347,5.0,8.0,21,0.00,,,0.00,1040.000000,,2013-04-28 17:51:00,
2013-04-28 12:12:00,64.0,23.0,-100.00,NNW,347,5.0,8.0,21,0.00,,,0.00,1040.000000,,2013-04-28 18:12:00,
2013-04-28 12:22:00,64.0,23.0,-100.00,NNW,347,5.0,8.0,21,0.00,,,0.00,1040.000000,,2013-04-28 18:22:00,
2013-04-28 12:32:00,64.0,23.0,-100.00,NNW,347,5.0,8.0,21,0.00,,,0.00,1040.000000,,2013-04-28 18:32:00,
2013-04-28 12:42:00,64.0,23.0,-100.00,NNW,347,5.0,8.0,21,0.00,,,0.00,1040.000000,,2013-04-28 18:42:00,
2013-04-28 12:51:00,68.0,25.0,-100.00,WNW,300,5.0,12.0,20,0.00,,,-99.99,1134.000000,,2013-04-28 18:51:00,
2013-04-28 13:11:00,68.0,25.0,-100.00,WNW,300,5.0,12.0,20,0.00,,,-99.99,1134.000000,,2013-04-28 19:11:00,
2013-04-28 13:21:00,68.0,25.0,-100.00,WNW,300,5.0,12.0,20,0.00,,,-99.99,1134.000000,,2013-04-28 19:21:00,
2013-04-28 13:31:00,68.0,25.0,-100.00,WNW,300,5.0,12.0,20,0.00,,,-99.99,1134.000000,,2013-04-28 19:31:00,
2013-04-28 13:41:00,68.0,25.0,-100.00,WNW,300,5.0,12.0,20,0.00,,,-99.99,1134.000000,,2013-04-28 19:41:00,
2013-04-28 13:51:00,71.0,23.0,-100.00,WNW,289,8.0,16.0,16,0.00,,,0.00,1151.000000,,2013-04-28 19:51:00,
2013-04-28 14:11:00,71.0,23.0,-100.00,WNW,289,8.0,16.0,16,0.00,,,0.00,1151.000000,,2013-04-28 20:11:00,
2013-04-28 14:22:00,71.0,23.0,-100.00,WNW,289,8.0,16.0,16,0.00,,,0.00,1151.000000,,2013-04-28 20:22:00,
2013-04-28 14:32:00,71.0,23.0,-100.00,WNW,289,8.0,16.0,16,0.00,,,0.00,1151.000000,,2013-04-28 20:32:00,
2013-04-28 14:41:00,71.0,23.0,-100.00,WNW,289,8.0,16.0,16,0.00,,,0.00,1151.000000,,2013-04-28 20:41:00,
2013-04-28 14:51:00,73.0,24.0,-100.00,West,281,8.0,18.0,16,0.00,,,0.00,1113.000000,,2013-04-28 20:51:00,
2013-04-28 15:11:00,73.0,24.0,-100.00,West,281,8.0,18.0,16,0.00,,,0.00,1113.000000,,2013-04-28 21:11:00,
2013-04-28 15:22:00,73.0,24.0,-100.00,West,281,8.0,18.0,16,0.00,,,0.00,1113.000000,,2013-04-28 21:22:00,
2013-04-28 15:32:00,73.0,24.0,-100.00,West,281,8.0,18.0,16,0.00,,,0.00,1113.000000,,2013-04-28 21:32:00,
2013-04-28 15:42:00,73.0,24.0,-100.00,West,281,8.0,18.0,16,0.00,,,0.00,1113.000000,,2013-04-28 21:42:00,
2013-04-28 15:51:00,73.0,21.0,-100.00,West,277,14.0,23.0,14,0.00,,,0.00,1009.000000,,2013-04-28 21:51:00,
2013-04-28 16:12:00,73.0,21.0,-100.00,West,277,14.0,23.0,14,0.00,,,0.00,1009.000000,,2013-04-28 22:12:00,
2013-04-28 16:22:00,73.0,21.0,-100.00,West,277,14.0,23.0,14,0.00,,,0.00,1009.000000,,2013-04-28 22:22:00,
2013-04-28 16:33:00,73.0,21.0,-100.00,West,277,14.0,23.0,14,0.00,,,0.00,1009.000000,,2013-04-28 22:33:00,
2013-04-28 16:42:00,73.0,21.0,-100.00,West,277,14.0,23.0,14,0.00,,,0.00,1009.000000,,2013-04-28 22:42:00,
2013-04-28 16:51:00,73.0,19.0,-100.00,WSW,251,8.0,21.0,13,0.00,,,0.00,834.000000,,2013-04-28 22:51:00,
2013-04-28 17:22:00,73.0,19.0,-100.00,WSW,251,8.0,21.0,13,0.00,,,0.00,834.000000,,2013-04-28 23:22:00,
2013-04-28 17:32:00,73.0,19.0,-100.00,WSW,251,8.0,21.0,13,0.00,,,0.00,834.000000,,2013-04-28 23:32:00,
2013-04-28 17:41:00,73.0,19.0,-100.00,WSW,251,8.0,21.0,13,0.00,,,0.00,834.000000,,2013-04-28 23:41:00,
2013-04-28 17:51:00,73.0,21.0,-100.00,West,263,8.0,20.0,14,0.00,,,0.00,615.000000,,2013-04-28 23:51:00,
2013-04-28 18:11:00,73.0,21.0,-100.00,West,263,8.0,20.0,14,0.00,,,0.00,615.000000,,2013-04-29 00:11:00,
2013-04-28 18:22:00,73.0,21.0,-100.00,West,263,8.0,20.0,14,0.00,,,0.00,615.000000,,2013-04-29 00:22:00,
2013-04-28 18:32:00,73.0,21.0,-100.00,West,263,8.0,20.0,14,0.00,,,0.00,615.000000,,2013-04-29 00:32:00,
2013-04-28 18:41:00,73.0,21.0,-100.00,West,263,8.0,20.0,14,0.00,,,0.00,615.000000,,2013-04-29 00:41:00,
2013-04-28 18:51:00,70.0,22.0,-100.00,SW,226,11.0,18.0,16,0.00,,,0.00,296.000000,,2013-04-29 00:51:00,
2013-04-28 19:12:00,70.0,22.0,-100.00,SW,226,11.0,18.0,16,0.00,,,0.00,296.000000,,2013-04-29 01:12:00,
2013-04-28 19:21:00,70.0,22.0,-100.00,SW,226,11.0,18.0,16,0.00,,,0.00,296.000000,,2013-04-29 01:21:00,
2013-04-28 19:32:00,70.0,22.0,-100.00,SW,226,11.0,18.0,16,0.00,,,0.00,296.000000,,2013-04-29 01:32:00,
2013-04-28 19:41:00,70.0,22.0,-100.00,SW,226,11.0,18.0,16,0.00,,,0.00,296.000000,,2013-04-29 01:41:00,
2013-04-28 19:51:00,67.0,22.0,-100.00,WSW,244,15.0,22.0,18,0.00,,,0.00,81.000000,,2013-04-29 01:51:00,
2013-04-28 20:11:00,67.0,22.0,-100.00,WSW,244,15.0,22.0,18,0.00,,,0.00,81.000000,,2013-04-29 02:11:00,
2013-04-28 20:21:00,67.0,22.0,-100.00,WSW,244,15.0,22.0,18,0.00,,,0.00,81.000000,,2013-04-29 02:21:00,
2013-04-28 20:31:00,67.0,22.0,-100.00,WSW,244,15.0,22.0,18,0.00,,,0.00,81.000000,,2013-04-29 02:31:00,
2013-04-28 20:41:00,67.0,22.0,-100.00,WSW,244,15.0,22.0,18,0.00,,,0.00,81.000000,,2013-04-29 02:41:00,
2013-04-28 20:51:00,64.0,22.0,-100.00,WSW,243,9.0,16.0,20,0.00,,,0.00,2.000000,,2013-04-29 02:51:00,
2013-04-28 21:12:00,64.0,22.0,-100.00,WSW,243,9.0,16.0,20,0.00,,,0.00,2.000000,,2013-04-29 03:12:00,
2013-04-28 21:21:00,64.0,22.0,-100.00,WSW,243,9.0,16.0,20,0.00,,,0.00,2.000000,,2013-04-29 03:21:00,
2013-04-28 21:33:00,64.0,22.0,-100.00,WSW,243,9.0,16.0,20,0.00,,,0.00,2.000000,,2013-04-29 03:33:00,
2013-04-28 21:42:00,64.0,22.0,-100.00,WSW,243,9.0,16.0,20,0.00,,,0.00,2.000000,,2013-04-29 03:42:00,
2013-04-28 21:51:00,61.0,21.0,-100.00,WSW,247,10.0,13.0,21,0.00,,,0.00,0.000000,,2013-04-29 03:51:00,
2013-04-28 22:13:00,61.0,21.0,-100.00,WSW,247,10.0,13.0,21,0.00,,,0.00,0.000000,,2013-04-29 04:13:00,
2013-04-28 22:23:00,61.0,21.0,-100.00,WSW,247,10.0,13.0,21,0.00,,,0.00,0.000000,,2013-04-29 04:23:00,
2013-04-28 22:32:00,61.0,21.0,-100.00,WSW,247,10.0,13.0,21,0.00,,,0.00,0.000000,,2013-04-29 04:32:00,
2013-04-28 22:43:00,61.0,21.0,-100.00,WSW,247,10.0,13.0,21,0.00,,,0.00,0.000000,,2013-04-29 04:43:00,
2013-04-28 22:51:00,62.0,22.0,-100.00,West,261,4.0,20.0,21,0.00,,,0.00,0.000000,,2013-04-29 04:51:00,
2013-04-28 23:22:00,62.0,22.0,-100.00,West,261,4.0,20.0,21,0.00,,,0.00,0.000000,,2013-04-29 05:22:00,
2013-04-28 23:32:00,62.0,22.0,-100.00,West,261,4.0,20.0,21,0.00,,,0.00,0.000000,,2013-04-29 05:32:00,
2013-04-28 23:42:00,62.0,22.0,-100.00,West,261,4.0,20.0,21,0.00,,,0.00,0.000000,,2013-04-29 05:42:00,
2013-04-28 23:51:00,61.0,23.0,-100.00,SSW,206,5.0,11.0,23,0.00,,,0.00,0.000000,,2013-04-29 05:51:00,